Location: ?
(35.6144°N, 139.6873°E)
Time: 18:01:00
(UTC+00:00)

ATLAS 3B R/B - Pass Details

Date: 23 May 2024
Orbit: 942 x 1252 km, 63.8° (Epoch: 21 June)

Event Time Altitude Azimuth Distance (km) Brightness Sun altitude
Rises 11:30:11 0° 326° (NW) 4,198 7.4 -18.2°
Reaches altitude 10° 11:33:00 10° 325° (NW) 3,233 6.4 -18.6°
Maximum altitude 11:40:48 70° 243° (WSW) 1,307 3.1 -19.7°
Enters shadow 11:45:19 27° 167° (SSE) 2,143 3.8 -20.4°
